RH
77 82 91 88 100 81 100 77 52 35 46 48 59 81 63 55 44 43 48 62 60 41 43 52 69 93 100 100 100 100 100 100 100
87 90 100 97 100 99 90 92 67 44 45 45 64 90 65 55 61 54 48 70 77 75 61 69 91 97 100 88 89 100 99 100 95
100 95 86 98 90 86 93 81 84 65 69 60 89 93 73 71 77 68 55 60 81 92 91 100 100 97 100 100 100 100 100 96 100
100 100 85 100 90 97 99 90 83 88 99 96 92 92 79 61 56 67 62 54 59 87 100 100 100 100 99 99 90 91 84 80 81
98 94 100 99 100 82 96 100 100 100 100 100 99 91 74 61 62 60 82 76 77 90 70 100 100 100 100 100 100 84 100 90 93
63 92 88 97 100 92 81 93 99 93 88 94 91 65 55 61 59 71 91 97 83 82 100 100 100 96 100 100 100 100 100 100 100
46 56 94 84 100 98 90 77 93 97 91 96 100 99 85 74 93 84 96 87 85 100 100 100 100 92 100 100 100 100 100 100 100
43 54 80 100 100 89 76 81 89 83 97 100 95 96 95 76 100 100 99 74 70 90 100 100 100 100 94 94 75 83 84 95 100
30 41 59 81 83 92 79 69 89 92 98 100 100 98 90 84 87 100 100 100 100 100 100 100 100 100 100 100 85 69 65 77 74
20 20 31 46 75 88 98 92 88 69 74 92 98 100 100 99 100 100 100 100 100 100 100 100 100 100 100 100 99 86 82 98 94
22 20 19 28 35 61 70 78 93 98 100 99 90 90 88 88 100 97 100 100 100 98 98 100 100 100 100 100 83 76 69 70 78
28 26 21 20 21 34 42 67 66 81 100 100 100 99 97 100 78 80 81 100 100 100 100 100 96 92 84 87 83 80 72 88 80
26 28 31 31 34 27 31 70 61 57 60 100 100 100 100 100 93 73 95 93 77 87 84 84 86 98 100 100 100 100 95 100 96
32 30 29 30 36 48 58 74 77 88 84 100 100 100 100 100 100 97 100 100 100 100 100 96 100 100 100 100 98 82 83 98 100
39 39 40 40 40 38 40 48 72 98 98 100 100 100 100 98 100 100 100 93 100 97 100 100 100 98 92 77 75 83 68 68 76
43 44 44 45 45 46 46 45 44 43 50 68 82 91 92 100 100 100 100 100 99 83 82 81 89 83 65 59 63 56 41 31 30
43 42 43 44 44 46 47 48 50 51 50 46 42 44 52 60 66 69 70 72 72 69 72 71 71 62 51 48 49 62 46 37 38
40 40 40 40 40 42 44 45 45 47 49 50 50 50 47 43 43 42 42 42 42 41 39 36 34 34 33 32 34 39 55 73 80
43 42 40 38 38 37 37 38 39 41 41 43 45 46 47 48 47 47 46 46 47 47 47 48 47 45 44 42 40 39 37 37 39
46 47 47 47 45 43 40 37 35 35 36 36 38 39 41 43 44 46 46 45 45 46 44 43 42 41 40 39 37 37 40 42 42
Wind_Speed
37 44 48 52 44 46 53 53 56 55 52 53 51 50 48 45 44 41 41 41 39 43 44 48 50 46 44 39 37 35 35 36 35
37 33 41 46 43 43 47 52 53 55 53 53 49 49 46 46 45 44 41 32 36 43 43 42 43 41 37 39 44 35 34 32 34
35 31 21 32 45 43 47 46 47 50 51 53 51 48 46 43 45 45 43 40 25 33 32 39 42 40 37 40 41 41 39 39 36
38 41 31 38 36 35 45 50 49 48 45 47 47 46 43 42 40 39 38 40 36 24 31 38 43 44 44 42 42 42 41 40 41
38 39 43 39 45 40 44 47 49 48 44 42 47 46 47 44 42 39 36 34 31 27 34 35 43 43 43 42 42 44 43 42 40
45 43 42 45 47 48 44 49 47 48 47 44 43 42 42 40 40 36 37 37 36 31 38 40 39 37 42 44 46 45 46 47 46
46 43 45 43 49 49 52 52 49 48 49 49 48 45 42 38 36 38 41 40 40 43 43 45 46 40 38 39 40 42 44 44 46
43 42 42 47 42 47 49 52 56 52 49 46 47 45 41 39 41 41 37 38 38 39 46 44 42 47 41 40 38 40 40 42 45
42 41 42 44 48 45 43 45 51 48 44 47 48 42 42 40 43 47 44 39 39 42 39 46 49 48 48 45 42 45 44 44 45
39 43 46 46 48 49 51 51 55 52 52 51 53 48 48 47 45 45 51 50 45 46 45 45 44 46 43 45 42 39 42 48 49
32 38 44 49 50 51 52 54 54 52 53 49 50 46 47 47 51 51 50 54 52 54 52 49 48 46 44 44 44 46 42 44 48
26 28 35 44 49 54 56 59 59 59 59 54 56 54 40 42 49 50 50 56 57 55 56 52 50 49 47 49 49 49 49 47 47
24 25 26 29 34 42 51 51 53 54 54 55 48 50 48 45 44 43 42 48 43 45 48 47 50 50 51 53 56 57 54 54 55
24 23 23 24 24 24 27 40 41 39 47 54 55 52 50 54 46 52 48 50 51 51 52 55 59 57 59 63 63 62 62 61 61
29 28 26 25 24 23 23 25 29 38 42 52 56 53 54 59 59 58 57 60 60 60 62 63 62 63 62 66 66 68 69 70 70
34 33 32 31 31 30 29 28 29 29 32 37 48 54 59 55 59 66 61 61 57 62 66 67 67 67 65 66 61 61 63 65 66
41 41 39 38 38 37 36 35 35 35 35 36 36 37 39 45 50 52 56 59 54 55 53 54 56 54 52 50 50 48 47 48 52
46 46 46 45 45 44 44 43 43 42 43 43 43 42 42 42 44 44 44 46 46 46 46 46 46 46 47 46 44 43 43 43 43
51 50 50 50 51 51 50 50 51 50 49 50 50 50 50 50 50 50 50 51 51 52 52 52 51 51 50 50 48 46 45 44 44
57 56 55 55 55 56 57 57 57 57 57 57 57 57 56 58 57 57 57 57 58 58 58 57 57 56 56 56 54 53 52 52 51
Wind_Direction
232 227 230 229 227 231 221 230 233 230 230 234 235 237 243 246 246 248 247 255 261 258 258 252 243 242 234 235 233 238 239 242 246
223 220 224 225 223 225 223 225 230 229 230 233 233 237 242 247 249 249 255 252 256 260 260 255 249 246 238 243 240 231 236 246 251
222 216 214 217 224 223 220 220 215 221 226 231 230 235 240 241 247 251 254 250 250 254 260 251 251 247 234 240 239 246 250 252 249
228 227 221 227 221 219 217 217 219 219 223 225 228 231 235 240 242 242 246 251 247 232 248 248 247 248 251 248 248 251 260 260 263
239 240 237 233 228 225 219 220 218 218 224 233 236 233 235 239 240 243 242 239 237 231 235 238 243 245 246 249 253 258 261 262 260
241 236 238 237 233 229 225 224 227 227 225 228 233 233 236 239 239 238 236 228 236 226 232 234 241 246 248 249 245 249 251 255 258
239 235 233 237 235 233 230 231 233 234 236 236 237 243 243 233 236 237 234 231 231 225 229 236 241 241 246 247 248 249 252 256 256
238 236 231 229 229 235 234 232 235 238 237 240 240 237 237 232 229 233 232 234 232 229 229 230 233 242 246 247 249 247 250 253 255
231 233 232 232 230 233 235 233 229 233 235 236 239 240 235 236 231 231 225 223 228 231 233 232 233 237 242 246 252 251 249 252 257
225 228 229 230 232 232 234 237 241 241 241 240 241 239 240 239 239 238 230 225 226 228 231 231 236 232 241 246 254 261 261 260 262
222 223 226 231 231 233 235 238 241 242 245 245 243 244 243 241 238 238 232 229 232 234 236 236 240 245 250 254 261 263 259 264 260
229 228 227 227 231 234 236 237 239 239 241 240 242 246 240 243 240 243 241 237 241 241 241 247 251 254 257 260 263 264 265 263 266
224 225 227 229 234 236 234 237 241 238 239 236 237 226 234 239 245 243 241 238 248 244 246 248 249 253 256 258 261 260 262 266 264
231 232 230 227 228 231 238 237 238 234 233 229 231 238 234 229 235 241 245 250 251 250 250 253 250 251 254 255 258 261 263 262 260
232 233 235 240 238 235 232 232 236 238 237 230 232 237 238 236 237 241 243 246 249 249 251 252 249 252 257 263 263 262 264 263 259
240 240 239 239 241 240 239 238 238 237 237 238 237 238 241 242 243 243 247 250 252 251 255 256 254 256 262 262 262 262 262 260 255
241 241 241 242 242 242 242 242 242 243 242 244 242 240 239 241 244 246 248 250 250 248 248 250 252 253 256 259 260 261 262 258 254
244 244 244 244 244 245 245 244 245 244 244 245 246 247 247 246 246 246 246 248 249 250 249 249 250 251 252 253 254 255 256 257 257
248 248 249 248 248 247 247 248 248 247 246 248 248 248 248 248 249 249 250 251 250 250 251 252 252 253 255 256 257 258 258 257 256
249 250 250 251 251 252 251 250 250 250 248 247 249 249 249 250 250 251 251 252 252 252 253 254 254 255 255 255 256 255 253 254 255